Location: Kumla
(59.1265°N, 15.1401°E)
Time: 14:12:25
(UTC+01:00)

A-11 Canister half - All Passes

Search period start: 03 December 2023 00:00
Search period end: 13 December 2023 00:00
Orbit: 1514 x 1685 km, 47.2° (Epoch: 02 December)

Date Brightness Start Highest point End Pass type
(mag) Time Alt. Az. Time Alt. Az. Time Alt. Az.
03 Dec - 01:43:09 10° SW 01:51:35 35° SSE 02:00:14 10° E visible
03 Dec - 03:45:55 10° WSW 03:54:56 42° S 04:04:10 10° ESE visible
03 Dec - 05:49:50 10° W 05:58:16 33° SSW 06:06:49 10° SSE visible
03 Dec - 07:55:34 10° W 08:00:44 15° SW 08:05:55 10° SSW daylight
03 Dec - 23:20:49 10° SSE 23:26:13 17° SE 23:31:43 10° E visible
04 Dec - 01:20:22 10° SW 01:28:42 34° SSE 01:37:16 10° E visible
04 Dec - 03:23:02 10° WSW 03:32:01 42° S 03:41:15 10° ESE visible
04 Dec - 05:26:52 10° W 05:35:22 33° SSW 05:44:00 10° SE visible
04 Dec - 07:32:24 10° W 07:37:54 16° SW 07:43:26 10° SSW visible
04 Dec - 22:58:23 10° SSE 23:03:25 16° SE 23:08:31 10° E night (unlit)
05 Dec - 00:57:35 10° SSW 01:05:49 33° SSE 01:14:17 10° E visible
05 Dec - 03:00:09 10° WSW 03:09:07 42° S 03:18:19 10° ESE visible
05 Dec - 05:03:57 10° W 05:12:29 34° SSW 05:21:10 10° SE visible
05 Dec - 07:09:17 10° W 07:15:04 17° SW 07:20:55 10° S visible
05 Dec - 22:36:00 10° SSE 22:40:37 15° SE 22:45:17 10° E night (unlit)
06 Dec - 00:34:50 10° SSW 00:42:57 32° SSE 00:51:18 10° E visible
06 Dec - 02:37:17 10° WSW 02:46:12 42° S 02:55:23 10° ESE visible
06 Dec - 04:41:01 10° W 04:49:35 35° SSW 04:58:20 10° SE visible
06 Dec - 06:46:11 10° W 06:52:14 18° SW 06:58:22 10° S visible
06 Dec - 22:13:41 10° SSE 22:17:49 14° SE 22:22:00 10° ESE night (unlit)
07 Dec - 00:12:05 10° SSW 00:20:05 31° SSE 00:28:18 10° E visible
07 Dec - 02:14:25 10° WSW 02:23:18 42° S 02:32:27 10° ESE visible
07 Dec - 04:18:05 10° W 04:26:42 36° SSW 04:35:29 10° SE visible
07 Dec - 06:23:05 10° W 06:29:24 19° SW 06:35:47 10° S visible
07 Dec - 21:51:28 10° SSE 21:55:01 13° SE 21:58:37 10° ESE night (unlit)
07 Dec - 23:49:20 10° SSW 23:57:13 30° SSE 00:05:19 10° E visible
08 Dec - 01:51:33 10° WSW 02:00:24 42° S 02:09:31 10° ESE visible
08 Dec - 03:55:10 10° W 04:03:48 36° SSW 04:12:38 10° SE visible
08 Dec - 06:00:02 10° W 06:06:34 20° SW 06:13:10 10° S visible
08 Dec - 21:29:24 10° SE 21:32:14 12° SE 21:35:06 10° ESE night (unlit)
08 Dec - 23:26:35 10° SSW 23:34:21 29° SSE 23:42:19 10° E night (unlit)
09 Dec - 01:28:41 10° WSW 01:37:29 41° S 01:46:35 10° ESE visible
09 Dec - 03:32:15 10° W 03:40:54 37° SSW 03:49:46 10° SE visible
09 Dec - 05:37:00 10° W 05:43:44 21° SW 05:50:33 10° S visible
09 Dec - 21:07:38 10° SE 21:09:28 11° SE 21:11:18 10° ESE night (unlit)
09 Dec - 23:03:53 10° SSW 23:11:30 28° SSE 23:19:20 10° E night (unlit)
10 Dec - 01:05:50 10° WSW 01:14:36 41° S 01:23:37 10° ESE visible
10 Dec - 03:09:20 10° W 03:18:00 38° SSW 03:26:55 10° SE visible
10 Dec - 05:13:58 10° W 05:20:52 22° SW 05:27:53 10° S visible
10 Dec - 22:41:10 10° SSW 22:48:39 27° SSE 22:56:20 10° E night (unlit)
11 Dec - 00:42:59 10° SW 00:51:42 41° S 01:00:41 10° ESE visible
11 Dec - 02:46:25 10° WSW 02:55:06 38° SSW 03:04:02 10° SE visible
11 Dec - 04:50:58 10° W 04:58:02 23° SW 05:05:13 10° S visible
11 Dec - 22:18:29 10° SSW 22:25:48 26° SE 22:33:19 10° E night (unlit)
12 Dec - 00:20:09 10° SW 00:28:48 40° S 00:37:44 10° ESE visible
12 Dec - 02:23:31 10° WSW 02:32:13 39° SSW 02:41:10 10° SE visible
12 Dec - 04:27:57 10° W 04:35:10 24° SW 04:42:31 10° S visible
12 Dec - 21:55:48 10° SSW 22:02:58 25° SE 22:10:18 10° E night (unlit)
